Miscellaneous Local Product
Issued by NWS Hastings, NE

Home | Current Version | Previous Version | Text Only | Print | Product List | Glossary Off
Versions: 1 2 3 4 5 6 7 8 9 10 11 12 13 14 15 16 17 18 19 20 21 22 23 24 25 26 27 28 29 30 31 32 33 34 35 36 37 38 39 40 41 42 43 44 45 46 47 48 49 50

000
AXUS43 KGID 290802
MISGRI

GID CWA HOURLY WEATHER ROUNDUP
NATIONAL WEATHER SERVICE HASTINGS NE
300 AM CDT MON MAY 29 2017

NOTE: "FAIR" INDICATES FEW OR NO CLOUDS BELOW 12,000 FEET WITH NO
SIGNIFICANT WEATHER AND/OR OBSTRUCTIONS TO VISIBILITY.

...SOUTH CENTRAL NEBRASKA...

CITY           SKY/WX    TMP DP  RH WIND       PRES   REMARKS
GRAND ISLAND   CLEAR     54  47  77 W10       29.99R
HASTINGS       CLEAR     55  46  71 W9        30.01R
KEARNEY        CLEAR     54  43  66 W9        30.02S
ORD            CLEAR     54  45  71 NW13      29.98R
YORK           CLEAR     55  46  71 W10       29.97R
AURORA         CLEAR     55  47  72 W9        29.98S
LEXINGTON      CLEAR     51  46  84 W7        30.04S
HOLDREGE       CLEAR     52  46  80 W6        30.04R
HEBRON         CLEAR     58  50  75 CALM      29.99R

...NEBRASKA PANHANDLE...

CITY           SKY/WX    TMP DP  RH WIND       PRES   REMARKS
CHADRON        CLEAR     51  45  79 NW14      30.13S
ALLIANCE       CLEAR     48  44  86 NW10      30.13F
SCOTTSBLUFF    CLEAR     50  43  77 W9        30.18S
SIDNEY         CLEAR     46  43  89 W9        30.19F

...WESTERN AND NORTH CENTRAL NEBRASKA...

CITY           SKY/WX    TMP DP  RH WIND       PRES   REMARKS
VALENTINE      CLEAR     51  45  79 NW12      30.04R
AINSWORTH      CLEAR     52  48  85 NW8       30.03R
ONEILL         CLEAR     55  45  71 NW9       29.98R
BROKEN BOW     CLEAR     57  45  64 NW15      30.02R
IMPERIAL       CLEAR     52  45  77 W10       30.13S
NORTH PLATTE   CLEAR     44  43  96 W6        30.08R
MCCOOK         CLEAR     51  46  83 W8        30.09R

...EASTERN NEBRASKA...

CITY           SKY/WX    TMP DP  RH WIND       PRES   REMARKS
NORFOLK        CLEAR     55  44  66 W8        29.92R
SO SIOUX CITY  CLEAR     50  45  83 CALM      29.89S
TEKAMAH        PTCLDY    63  43  48 NW15      29.88R
ALBION         CLEAR     55  46  70 N9        29.96R
OMAHA EPPLEY   CLEAR     61  43  51 NW3       29.89R
OFFUTT AFB     CLEAR     54  46  74 W3        29.90R
MILLARD        CLEAR     58  49  74 CALM      29.91R
LINCOLN        PTCLDY    57  45  64 CALM      29.95R
NEBRASKA CITY  CLEAR     60  42  51 W12       29.92R
BEATRICE       CLEAR     56  49  78 W6        29.95R
FALLS CITY     PTCLDY    57  46  66 SW5       29.92R

...NORTHERN KANSAS...

CITY           SKY/WX    TMP DP  RH WIND       PRES   REMARKS
GOODLAND       CLEAR     50  46  86 NW12      30.16R
HILL CITY      CLEAR     57  50  77 VRB6      30.08R
NORTON         SUNNY     54  46  76 W9        30.07R
PHILLIPSBURG   CLEAR     54  52  94 W6        30.05R
SMITH CENTER   PTCLDY    54  46  76 W5        30.04R
HAYS           PTCLDY    56  51  84 N9        30.05R
RUSSELL        PTCLDY    55  51  86 NW5       30.03R
CONCORDIA      PTCLDY    60  50  69 W8        30.00R
SALINA         CLEAR     57  52  83 CALM      30.00S
TOPEKA         CLEAR     57  55  93 CALM      29.96S



USA.gov is the U.S. government's official web portal to all federal, state and local government web resources and services.